Date String (YYYY-MM-DD hh:mm:ss) UTC,Instrument flags,Ambient pressure (hPa),Sample flow (lpm),Bypass flow (lpm),Sample temperature (°C),Ambient temperature (°C),ASC tube jacket temperature (°C),LED temperature (°C),Box temperature (°C),Sample RH (%),Span deviation,Mass concentration (μg/m³),Mass concentration (μg/m³),Mass concentration (μg/m³)
DateTimeUTC,F1_M11,P_M11,Q1_M11,Q2_M11,T1_M11,T2_M11,T3_M11,T4_M11,T5_M11,U1_M11,ZSPAN_M11,X0_M11,X2_M11,X1_M11
2022-06-10 18:00:00,,0826.7,5.00,0.00,29.0,27.7,00.0,37.7,30.9,29.1,0000.0,0021.98,0006.71,0004.59
2022-06-10 18:01:00,,0826.7,5.01,0.00,28.9,27.1,00.0,37.6,30.7,28.6,0000.0,0021.44,0006.74,0004.60
2022-06-10 18:02:00,,0826.7,4.99,0.00,28.8,26.8,00.0,37.6,30.6,28.5,0000.0,0020.90,0006.81,0004.61
2022-06-10 18:03:00,,0826.7,4.99,0.00,28.8,26.9,00.0,37.6,30.5,30.7,0000.0,0019.75,0006.77,0004.62
2022-06-10 18:04:00,,0826.7,5.00,0.00,28.7,27.0,00.0,37.6,30.5,30.3,0000.0,0019.76,0006.82,0004.62
2022-06-10 18:05:00,,0826.7,4.99,0.00,28.7,27.1,00.0,37.6,30.6,29.1,0000.0,0019.86,0006.84,0004.61
2022-06-10 18:06:00,,0826.7,5.00,0.00,28.7,27.3,00.0,37.6,30.6,28.8,0000.0,0018.78,0006.86,0004.61
2022-06-10 18:07:00,,0826.7,4.99,0.00,28.7,27.4,00.0,37.6,30.7,28.8,0000.0,0017.98,0006.80,0004.61
2022-06-10 18:08:00,,0826.7,5.00,0.00,28.8,27.6,00.0,37.6,30.8,29.2,0000.0,0017.11,0006.75,0004.60
2022-06-10 18:09:00,,0826.7,5.00,0.00,28.8,27.7,00.0,37.6,30.8,29.2,0000.0,0017.78,0006.80,0004.60
2022-06-10 18:10:00,,0826.7,5.00,0.00,28.9,27.9,00.0,37.6,30.9,30.2,0000.0,0018.31,0006.85,0004.61
2022-06-10 18:11:00,,0826.7,5.00,0.00,28.9,28.0,00.0,37.7,30.9,30.6,0000.0,0019.05,0006.93,0004.61
2022-06-10 18:12:00,,0826.7,5.01,0.00,28.9,28.0,00.0,37.7,31.0,29.8,0000.0,0020.51,0006.93,0004.60
2022-06-10 18:13:00,,0826.7,5.00,0.00,28.9,27.5,00.0,37.6,30.8,28.7,0000.0,0021.28,0006.94,0004.61
2022-06-10 18:14:00,,0826.7,5.00,0.00,28.9,26.9,00.0,37.6,30.6,28.8,0000.0,0022.25,0006.98,0004.62
2022-06-10 18:15:00,,0826.7,4.99,0.00,28.8,26.7,00.0,37.6,30.6,29.1,0000.0,0024.12,0007.00,0004.63
2022-06-10 18:16:00,,0826.6,5.00,0.00,28.7,26.8,00.0,37.6,30.5,29.7,0000.0,0025.01,0007.04,0004.63
2022-06-10 18:17:00,,0826.5,5.01,0.00,28.7,26.9,00.0,37.6,30.5,29.6,0000.0,0026.27,0007.03,0004.63
2022-06-10 18:18:00,,0826.5,5.00,0.00,28.7,27.1,00.0,37.6,30.5,29.5,0000.0,0026.56,0007.01,0004.62
2022-06-10 18:19:00,,0826.5,5.01,0.00,28.7,27.2,00.0,37.6,30.6,30.7,0000.0,0027.10,0007.07,0004.62
2022-06-10 18:20:00,,0826.5,4.99,0.00,28.7,27.4,00.0,37.6,30.7,31.1,0000.0,0027.86,0007.05,0004.62
2022-06-10 18:21:00,,0826.5,5.01,0.00,28.8,27.6,00.0,37.6,30.7,30.2,0000.0,0028.44,0007.06,0004.61
2022-06-10 18:22:00,,0826.5,5.00,0.00,28.8,27.7,00.0,37.6,30.8,30.0,0000.0,0028.43,0007.03,0004.61
2022-06-10 18:23:00,,0826.6,5.01,0.00,28.8,27.9,00.0,37.6,30.9,30.1,0000.0,0027.73,0007.04,0004.61
2022-06-10 18:24:00,,0826.6,5.00,0.00,28.9,28.0,00.0,37.6,30.9,30.6,0000.0,0027.72,0007.04,0004.61
2022-06-10 18:25:00,,0826.6,5.00,0.00,28.9,27.6,00.0,37.6,30.8,30.0,0000.0,0027.92,0007.02,0004.60
2022-06-10 18:26:00,,0826.5,4.99,0.00,28.8,27.0,00.0,37.6,30.6,29.7,0000.0,0027.14,0007.05,0004.61
2022-06-10 18:27:00,,0826.5,5.01,0.00,28.8,26.7,00.0,37.5,30.5,29.3,0000.0,0026.79,0006.96,0004.62
2022-06-10 18:28:00,,0826.5,5.00,0.00,28.7,26.7,00.0,37.5,30.4,29.5,0000.0,0026.08,0006.89,0004.62
2022-06-10 18:29:00,,0826.5,4.99,0.00,28.6,26.8,00.0,37.5,30.4,30.6,0000.0,0025.82,0006.97,0004.62
2022-06-10 18:30:00,,0826.5,5.01,0.00,28.6,27.0,00.0,37.5,30.5,30.2,0000.0,0025.42,0006.94,0004.62
2022-06-10 18:31:00,,0826.5,5.00,0.00,28.7,27.2,00.0,37.5,30.5,30.2,0000.0,0024.00,0006.96,0004.62
2022-06-10 18:32:00,,0826.5,5.00,0.00,28.7,27.3,00.0,37.5,30.6,30.9,0000.0,0023.10,0006.99,0004.63
2022-06-10 18:33:00,,0826.5,5.00,0.00,28.7,27.5,00.0,37.6,30.7,30.1,0000.0,0023.03,0007.04,0004.63
2022-06-10 18:34:00,,0826.5,5.01,0.00,28.8,27.7,00.0,37.6,30.7,29.1,0000.0,0023.13,0007.05,0004.64
2022-06-10 18:35:00,,0826.5,5.00,0.00,28.8,27.8,00.0,37.6,30.8,28.7,0000.0,0022.23,0007.04,0004.68
2022-06-10 18:36:00,,0826.5,4.98,0.00,28.8,27.9,00.0,37.6,30.9,29.7,0000.0,0022.03,0007.11,0004.72
2022-06-10 18:37:00,,0826.4,5.00,0.00,28.9,27.8,00.0,37.6,30.8,31.3,0000.0,0022.05,0007.17,0004.76
2022-06-10 18:38:00,,0826.5,5.00,0.00,28.8,27.1,00.0,37.5,30.6,31.9,0000.0,0021.60,0007.27,0004.79
2022-06-10 18:39:00,,0826.5,5.00,0.00,28.8,26.7,00.0,37.5,30.5,31.9,0000.0,0022.57,0007.45,0004.85
2022-06-10 18:40:00,,0826.4,5.00,0.00,28.7,26.7,00.0,37.5,30.4,31.2,0000.0,0022.54,0007.47,0004.90
2022-06-10 18:41:00,,0826.5,4.99,0.00,28.6,26.8,00.0,37.5,30.4,30.7,0000.0,0022.88,0007.55,0004.96
2022-06-10 18:42:00,,0826.4,4.99,0.00,28.6,26.9,00.0,37.5,30.4,30.5,0000.0,0023.76,0007.63,0005.03
2022-06-10 18:43:00,,0826.4,5.01,0.00,28.6,27.1,00.0,37.5,30.5,30.9,0000.0,0024.74,0007.63,0005.07
2022-06-10 18:44:00,,0826.4,5.00,0.00,28.6,27.3,00.0,37.5,30.6,30.5,0000.0,0025.68,0007.60,0005.12
2022-06-10 18:45:00,,0826.3,5.01,0.00,28.7,27.4,00.0,37.5,30.6,31.3,0000.0,0024.62,0007.65,0005.13
2022-06-10 18:46:00,,0826.2,4.99,0.00,28.7,27.6,00.0,37.5,30.7,31.8,0000.0,0025.96,0007.74,0005.12
2022-06-10 18:47:00,,0826.2,5.00,0.00,28.8,27.8,00.0,37.5,30.8,32.0,0000.0,0025.36,0007.68,0005.12
2022-06-10 18:48:00,,0826.2,5.01,0.00,28.8,27.9,00.0,37.6,30.8,31.4,0000.0,0024.35,0007.63,0005.12
2022-06-10 18:49:00,,0826.2,5.00,0.00,28.8,27.9,00.0,37.6,30.8,31.1,0000.0,0024.69,0007.65,0005.12
2022-06-10 18:50:00,,0826.2,5.00,0.00,28.8,27.3,00.0,37.5,30.7,30.1,0000.0,0023.92,0007.62,0005.12
2022-06-10 18:51:00,,0826.2,5.00,0.00,28.7,26.8,00.0,37.5,30.5,30.5,0000.0,0024.08,0007.66,0005.11
2022-06-10 18:52:00,,0826.2,4.99,0.00,28.7,26.7,00.0,37.5,30.5,29.8,0000.0,0023.63,0007.63,0005.10
2022-06-10 18:53:00,,0826.3,5.00,0.00,28.6,26.7,00.0,37.5,30.4,30.1,0000.0,0023.40,0007.63,0005.08
2022-06-10 18:54:00,,0826.2,4.99,0.00,28.6,26.9,00.0,37.5,30.4,29.3,0000.0,0023.55,0007.62,0005.06
2022-06-10 18:55:00,,0826.2,5.00,0.00,28.6,27.1,00.0,37.5,30.5,29.0,0000.0,0022.72,0007.67,0005.06
2022-06-10 18:56:00,,0826.2,5.01,0.00,28.6,27.2,00.0,37.5,30.5,29.7,0000.0,0024.14,0007.67,0005.07
2022-06-10 18:57:00,,0826.2,5.00,0.00,28.7,27.4,00.0,37.5,30.6,30.0,0000.0,0023.79,0007.65,0005.08
2022-06-10 18:58:00,,0826.1,5.00,0.00,28.7,27.6,00.0,37.5,30.7,31.1,0000.0,0024.58,0007.68,0005.09
2022-06-10 18:59:00,,0826.1,5.00,0.00,28.7,27.7,00.0,37.5,30.8,30.3,0000.0,0024.93,0007.74,0005.09
